Laramie, WY

8:25 PM MST on February 09, 2016 (GMT -0700)
Laramie Regional

Weather History for KLAR - May, 2013

Change the Weather History Date:

Sunday, May 19, 2013

  Actual Average Record
Temperature  
Mean Temperature 45 °F 49 °F  
Max Temperature 56 °F 63 °F 80 °F (1954)
Min Temperature 33 °F 35 °F 20 °F (1966)
Degree Days  
Heating Degree Days 20 16  
Month to date heating degree days 353 367  
Since 1 July heating degree days 8293 8416  
Cooling Degree Days 0 0  
Month to date cooling degree days 0 0  
Year to date cooling degree days 0 0  
Moisture  
Dew Point 34 °F    
Average Humidity 66    
Maximum Humidity 93    
Minimum Humidity 38    
Precipitation  
Precipitation 0.12 in 0.05 in 0.90 in (1988)
Month to date precipitation 0.64 0.93  
Year to date precipitation 2.62 3.19  
Sea Level Pressure  
Sea Level Pressure 29.81 in    
Wind  
Wind Speed 14 mph (NW)    
Max Wind Speed 33 mph    
Max Gust Speed 41 mph    
Visibility 10 miles    
Events Rain    
T = Trace of Precipitation, MM = Missing Value Source: NWS Daily Summary

Daily Weather History Graph

Daily Weather History Graph

Search for Another Location

Airport or City:

Trip Planner

Search our weather history database for the weather conditions in past years. The results will help you decide how hot, cold, wet, or windy it might be!

Date:

Astronomy

May. 19, 2013 Rise Set
Actual Time 5:40 AM MDT 8:18 PM MDT
Civil Twilight 5:08 AM MDT 8:50 PM MDT
Nautical Twilight 4:28 AM MDT 9:30 PM MDT
Astronomical Twilight 3:43 AM MDT 10:16 PM MDT
Moon 2:22 PM MDT (5/19) 2:08 AM MDT (5/19)
Length of Visible Light 15h 42m
Length of Day
14h 38m
Waxing Gibbous, 66% of the Moon is Illuminated
May 19
Waxing Gibbous
May 24
Full
May 31
Last Quarter
Jun 8
New
Jun 16
First Quarter

Hourly Weather History & Observations

Time (MDT) Temp. Windchill Dew Point Humidity Pressure Visibility Wind Dir Wind Speed Gust Speed Precip Events Conditions
12:53 AM 39.9 °F 34.5 °F 34.0 °F 79% 29.75 in 10.0 mi West 8.1 mph - N/A   Scattered Clouds
1:53 AM 37.9 °F 34.4 °F 32.0 °F 79% 29.75 in - WSW 4.6 mph - N/A   Clear
2:53 AM 35.1 °F - 30.9 °F 85% 29.79 in 10.0 mi Calm Calm - N/A   Overcast
4:53 AM 33.1 °F 26.1 °F 30.0 °F 89% 29.79 in - WSW 8.1 mph - N/A   Scattered Clouds
5:53 AM 35.1 °F 31.0 °F 30.9 °F 85% 29.83 in 10.0 mi ENE 4.6 mph - N/A   Overcast
6:53 AM 37.9 °F 32.1 °F 34.0 °F 86% 29.79 in - ENE 8.1 mph - N/A   Overcast
7:53 AM 42.1 °F 40.2 °F 34.0 °F 73% 29.79 in - East 3.5 mph - N/A   Clear
8:53 AM 46.9 °F - 33.1 °F 59% 29.76 in 10.0 mi Variable 3.5 mph - N/A   Clear
9:53 AM 51.1 °F - 32.0 °F 48% 29.72 in 10.0 mi WSW 23.0 mph - N/A   Mostly Cloudy
10:53 AM 50.0 °F - 30.0 °F 46% 29.72 in 10.0 mi West 12.7 mph 25.3 mph N/A   Overcast
11:16 AM 50.0 °F - 30.2 °F 47% 29.90 in 10.0 mi North - - N/A   Overcast
11:53 AM 46.0 °F 39.3 °F 33.1 °F 61% 29.76 in 10.0 mi NNW 16.1 mph 19.6 mph 0.01 in Rain Light Rain
12:03 PM 46.4 °F 39.5 °F 35.6 °F 66% 29.90 in 10.0 mi NW 17.3 mph - 0.00 in Rain Light Rain
2:53 PM 52.0 °F - 32.0 °F 47% 29.73 in 10.0 mi NW 28.8 mph 38.0 mph N/A   Mostly Cloudy
3:53 PM 51.1 °F - 34.0 °F 52% 29.76 in 10.0 mi NW 24.2 mph 31.1 mph N/A   Partly Cloudy
4:53 PM 50.0 °F - 32.0 °F 50% 29.77 in 10.0 mi NW 19.6 mph - N/A   Partly Cloudy
5:53 PM 51.1 °F - 32.0 °F 48% 29.76 in 10.0 mi NW 23.0 mph 32.2 mph N/A   Scattered Clouds
6:53 PM 48.9 °F - 32.0 °F 52% 29.76 in 10.0 mi NW 24.2 mph 32.2 mph N/A   Clear
7:53 PM 46.0 °F 39.0 °F 35.1 °F 66% 29.78 in 10.0 mi NNW 17.3 mph 24.2 mph N/A   Clear
8:53 PM 43.0 °F 37.2 °F 35.1 °F 74% 29.78 in 10.0 mi NW 10.4 mph - N/A   Partly Cloudy
9:53 PM 43.0 °F 36.8 °F 37.0 °F 80% 29.78 in 10.0 mi NW 11.5 mph - N/A   Mostly Cloudy
10:43 PM 42.8 °F 37.0 °F 39.2 °F 87% 29.95 in 10.0 mi NNW 10.4 mph - 0.01 in Rain Light Rain
10:53 PM 42.1 °F 35.7 °F 39.9 °F 92% 29.78 in 10.0 mi NNW 11.5 mph - 0.01 in Rain Light Rain
11:21 PM 42.8 °F 38.0 °F 39.2 °F 87% 29.95 in 10.0 mi NW 8.1 mph - 0.00 in Rain Light Rain
11:32 PM 41.0 °F 34.3 °F 39.2 °F 93% 29.95 in 10.0 mi NW 11.5 mph - 0.01 in Rain Light Rain
11:41 PM 41.0 °F 34.7 °F 39.2 °F 93% 29.95 in 10.0 mi NW 10.4 mph - 0.01 in Rain Light Rain
11:53 PM 41.0 °F 33.5 °F 39.0 °F 93% 29.80 in 10.0 mi NW 13.8 mph - 0.01 in Rain Light Rain